KD7KCN-5 Weather Reports


Display with metric or nautical units.
time (UTC)temp
F
wind
direction
speed
MPH
gust
MPH
rain 1hr
in
rain 24hr
in
rain mn
in
humidity
%
barometer
mb
20260902180541 74 130 20.0 34.0 0.00 0.00 0.00 16 1016.8
20260902165541 71 156 23.0 39.0 0.00 0.00 0.00 17 1016.9
20260902163541 70 128 28.0 40.0 0.00 0.00 0.00 18 1016.8
20260902161541 70 139 21.0 35.0 0.00 0.00 0.00 20 1016.9
20260902160636 70 142 20.0 32.0 0.00 0.00 0.00 21 1016.9
20260902160541 70 142 20.0 32.0 0.00 0.00 0.00 21 1016.9
20260902154800 69 125 15.0 33.0 0.00 0.00 0.00 24 1016.9
20260902154541 69 144 17.0 33.0 0.00 0.00 0.00 23 1016.9
20260902153541 69 125 15.0 33.0 0.00 0.00 0.00 24 1016.9
20260902151541 68 147 19.0 34.0 0.00 0.00 0.00 24 1017.0
20260902150541 68 128 17.0 28.0 0.00 0.00 0.00 23 1017.0
20260902145541 68 127 11.0 24.0 0.00 0.00 0.00 23 1017.1
20260902144542 67 116 16.0 25.0 0.00 0.00 0.00 23 1017.1
20260902143541 67 125 13.0 19.0 0.00 0.00 0.00 23 1017.1
20260902142543 66 114 13.0 17.0 0.00 0.00 0.00 22 1016.9
20260902141542 65 115 11.0 18.0 0.00 0.00 0.00 23 1017.0
20260902140542 64 122 10.0 14.0 0.00 0.00 0.00 23 1017.0
20260902140142 63 123 12.0 15.0 0.00 0.00 0.00 23 1017.0
20260902135542 63 123 12.0 15.0 0.00 0.00 0.00 23 1017.0
20260902134542 63 120 11.0 15.0 0.00 0.00 0.00 23 1016.9
20260902133542 63 122 8.0 16.0 0.00 0.00 0.00 23 1016.8
20260902132542 63 123 9.0 13.0 0.00 0.00 0.00 23 1016.6
20260902131542 63 124 11.0 19.0 0.00 0.00 0.00 23 1016.4
20260902130542 64 130 6.0 16.0 0.00 0.00 0.00 22 1016.4
20260902125542 65 141 7.0 29.0 0.00 0.00 0.00 22 1016.3
20260902124542 64 136 8.0 22.0 0.00 0.00 0.00 22 1016.2
20260902123542 65 131 12.0 27.0 0.00 0.00 0.00 22 1016.3
20260902122542 65 194 11.0 18.0 0.00 0.00 0.00 23 1016.2
20260902120542 65 119 5.0 17.0 0.00 0.00 0.00 24 1016.3
20260902115542 65 124 8.0 16.0 0.00 0.00 0.00 24 1016.2
20260902114542 66 138 3.0 14.0 0.00 0.00 0.00 24 1016.1
20260902113542 66 115 7.0 17.0 0.00 0.00 0.00 24 1016.0
20260902112543 67 135 8.0 24.0 0.00 0.00 0.00 24 1016.1
20260902110542 67 145 7.0 24.0 0.00 0.00 0.00 24 1016.0
20260902103543 68 157 5.0 25.0 0.00 0.00 0.00 24 1015.1
20260902095542 68 147 10.0 32.0 0.00 0.00 0.00 24 1015.2
20260902092543 68 154 14.0 27.0 0.00 0.00 0.00 24 1015.6
20260902090543 68 151 12.0 22.0 0.00 0.00 0.00 25 1015.5
20260902083542 68 142 7.0 14.0 0.00 0.00 0.00 26 1015.7
20260902082544 69 156 3.0 13.0 0.00 0.00 0.00 25 1015.8
20260902081543 69 211 5.0 18.0 0.00 0.00 0.00 25 1015.8
20260902080543 69 135 4.0 16.0 0.00 0.00 0.00 25 1015.8
20260902075543 70 136 7.0 21.0 0.00 0.00 0.00 25 1015.7
20260902073543 69 154 10.0 17.0 0.00 0.00 0.00 25 1015.5
20260902071545 70 156 11.0 19.0 0.00 0.00 0.00 24 1015.6
20260902070544 70 146 9.0 19.0 0.00 0.00 0.00 24 1015.6
20260902065544 70 168 8.0 15.0 0.00 0.00 0.00 24 1015.6
20260902064543 70 153 7.0 19.0 0.00 0.00 0.00 24 1015.6
20260902063545 69 230 9.0 15.0 0.00 0.00 0.00 25 1015.6
20260902062618 69 0 0.0 5.0 0.00 0.00 0.00 23 1015.7
20260902062543 69 0 0.0 5.0 0.00 0.00 0.00 23 1015.7
20260902061543 69 0 0.0 2.0 0.00 0.00 0.00 23 1015.7
20260902060543 69 124 1.0 6.0 0.00 0.00 0.00 22 1015.7
20260902055543 70 118 1.0 6.0 0.00 0.00 0.00 22 1015.8
20260902054543 71 105 2.0 11.0 0.00 0.00 0.00 21 1015.8
20260902053543 71 205 2.0 17.0 0.00 0.00 0.00 22 1015.8
20260902052544 71 216 12.0 17.0 0.00 0.00 0.00 22 1015.8
20260902051543 71 90 8.0 17.0 0.00 0.00 0.00 21 1015.8
20260902050543 71 158 9.0 18.0 0.00 0.00 0.00 22 1016.0
20260902045543 70 126 4.0 8.0 0.00 0.00 0.00 21 1016.0
20260902044550 71 121 3.0 11.0 0.00 0.00 0.00 1016.0
20260902043637 72 118 3.0 7.0 0.00 0.00 0.00 20 1015.9
20260902043543 72 118 3.0 7.0 0.00 0.00 0.00 20 1015.9
20260902042546 72 161 2.0 6.0 0.00 0.00 0.00 20 1016.0
20260902041544 72 184 4.0 13.0 0.00 0.00 0.00 20 1016.0
20260902040543 72 195 2.0 6.0 0.00 0.00 0.00 19 1016.0
20260902035544 72 0 0.0 6.0 0.00 0.00 0.00 19 1015.1
20260902034543 72 193 1.0 6.0 0.00 0.00 0.00 19 1014.9
20260902033543 72 0 0.0 11.0 0.00 0.00 0.00 19 1014.8
20260902032546 72 0 0.0 11.0 0.00 0.00 0.00 19 1014.8
20260902030543 73 161 5.0 14.0 0.00 0.00 0.00 20 1015.2
20260902025546 73 169 11.0 16.0 0.00 0.00 0.00 19 1015.0
20260902024544 74 176 8.0 14.0 0.00 0.01 0.00 20 1014.9
20260902023544 74 156 12.0 22.0 0.00 0.01 0.00 20 1014.8
20260902022544 74 203 11.0 17.0 0.00 0.01 0.00 22 1014.7
20260902021543 74 194 6.0 17.0 0.00 0.01 0.00 30 1014.6
20260902020543 75 118 7.0 23.0 0.00 0.01 0.00 34 1014.4
20260902015543 75 130 12.0 26.0 0.00 0.02 0.00 35 1014.4
20260902014543 75 108 9.0 27.0 0.00 0.02 0.00 35 1014.5
20260902013543 75 115 15.0 32.0 0.00 0.02 0.00 35 1014.5
20260902011544 75 154 19.0 29.0 0.00 0.02 0.00 35 1014.7
20260902010544 75 136 19.0 26.0 0.00 0.02 0.00 35 1014.7
20260902005546 75 119 15.0 23.0 0.00 0.02 0.00 36 1014.8
20260902004545 75 155 17.0 30.0 0.00 0.02 0.00 36 1015.0
20260902003544 75 111 12.0 26.0 0.00 0.02 0.00 35 1015.0
20260902000544 77 164 15.0 28.0 0.00 0.02 0.00 32 1015.0
20260901235543 77 141 20.0 32.0 0.00 0.02 0.00 34 1015.0
20260901234544 77 133 19.0 27.0 0.00 0.03 0.00 37 1015.2
20260901233546 76 97 10.0 34.0 0.00 0.04 0.00 38 1015.1
20260901232543 76 133 19.0 38.0 0.00 0.04 0.00 37 1015.2
20260901230545 77 100 15.0 37.0 0.00 0.04 0.00 36 1015.4
20260901225546 78 194 12.0 30.0 0.00 0.04 0.00 32 1015.5
20260901224549 79 163 15.0 30.0 0.00 0.04 0.00 30 1015.4
20260901223544 78 125 6.0 38.0 0.00 0.04 0.00 32 1015.6
20260901222544 78 154 23.0 31.0 0.00 0.04 0.00 33 1015.3
20260901221544 77 154 23.0 33.0 0.00 0.04 0.00 31 1015.7
20260901220544 77 164 17.0 34.0 0.00 0.04 0.00 32 1015.7
20260901215544 77 149 16.0 36.0 0.00 0.04 0.00 33 1015.9
20260901214545 78 209 16.0 35.0 0.00 0.04 0.00 31 1016.0
20260901213545 77 149 16.0 40.0 0.00 0.04 0.00 32 1016.0
20260901212545 77 153 14.0 37.0 0.00 0.04 0.00 33 1016.1
20260901211545 76 132 26.0 44.0 0.00 0.04 0.00 32 1016.1
20260901210546 76 145 28.0 37.0 0.00 0.04 0.00 35 1016.3
20260901205544 77 140 25.0 37.0 0.00 0.04 0.00 35 1016.2
20260901204544 78 133 9.0 33.0 0.00 0.04 0.00 34 1016.5
20260901203544 76 141 24.0 36.0 0.00 0.04 0.00 37 1016.7
20260901201545 76 138 16.0 38.0 0.00 0.04 0.00 38 1016.8
20260901200544 75 153 19.0 39.0 0.00 0.04 0.00 40 1016.9
20260901195617 75 145 22.0 42.0 0.00 0.04 0.00 43 1016.9
20260901195544 75 145 22.0 42.0 0.00 0.04 0.00 43 1016.9
20260901194547 74 141 21.0 35.0 0.00 0.04 0.00 45 1017.2
20260901193544 74 141 15.0 27.0 0.00 0.04 0.00 46 1017.1
20260901192547 73 129 19.0 37.0 0.00 0.04 0.00 48 1017.2
20260901190545 74 162 14.0 33.0 0.00 0.04 0.00 48 1017.5
20260901185549 74 144 9.0 29.0 0.00 0.04 0.00 50 1017.6
20260901184545 73 139 11.0 29.0 0.00 0.04 0.00 52 1017.7
20260901183547 71 153 13.0 28.0 0.00 0.04 0.00 55 1017.8
20260901182544 72 130 17.0 34.0 0.00 0.04 0.00 54 1017.9
20260901181544 74 138 13.0 32.0 0.00 0.04 0.00 51 1017.8